Time,TemperatureF,DewpointF,PressureIn,WindDirection,WindDirectionDegrees,WindSpeedMPH,WindSpeedGustMPH,Humidity,HourlyPrecipIn,Conditions,Clouds,dailyrainin,SoftwareType,DateUTC
2013-06-13 00:01:00,81.0,76.0,30.03,SE,136,0.0,0.0,84,0.00,,,0.41,,2013-06-13 04:01:00,
2013-06-13 00:12:00,81.0,76.0,30.03,SE,133,0.0,0.0,84,0.00,,,0.41,,2013-06-13 04:12:00,
2013-06-13 00:22:00,81.0,76.0,30.03,SE,136,0.0,0.0,84,0.00,,,0.41,,2013-06-13 04:22:00,
2013-06-13 00:32:00,81.0,76.0,30.02,SSE,153,0.0,0.0,85,0.00,,,0.41,,2013-06-13 04:32:00,
2013-06-13 00:43:00,81.0,76.0,30.02,SSE,158,0.0,0.0,86,0.00,,,0.41,,2013-06-13 04:43:00,
2013-06-13 00:53:00,81.0,77.0,30.02,SE,138,0.0,0.0,87,0.00,,,0.41,,2013-06-13 04:53:00,
2013-06-13 01:02:00,81.0,77.0,30.02,SE,143,0.0,0.0,87,0.00,,,0.41,,2013-06-13 05:02:00,
2013-06-13 01:12:00,81.0,77.0,30.02,SSE,153,0.0,0.0,88,0.00,,,0.41,,2013-06-13 05:12:00,
2013-06-13 01:24:00,81.0,77.0,30.02,SSE,153,0.0,0.0,88,0.00,,,0.41,,2013-06-13 05:24:00,
2013-06-13 01:33:00,81.0,77.0,30.01,SSE,153,0.0,0.0,88,0.00,,,0.41,,2013-06-13 05:33:00,
2013-06-13 01:43:00,81.0,77.0,30.00,SSE,167,0.0,0.0,88,0.00,,,0.41,,2013-06-13 05:43:00,
2013-06-13 01:53:00,81.0,77.0,30.00,SSE,158,0.0,0.0,87,0.00,,,0.41,,2013-06-13 05:53:00,
2013-06-13 02:02:00,81.0,77.0,30.00,SSE,158,0.0,0.0,87,0.00,,,0.41,,2013-06-13 06:02:00,
2013-06-13 02:11:00,80.0,75.0,30.00,SSE,153,0.0,0.0,86,0.00,,,0.41,,2013-06-13 06:11:00,
2013-06-13 02:22:00,80.0,75.0,30.00,SSE,153,0.0,0.0,86,0.00,,,0.41,,2013-06-13 06:22:00,
2013-06-13 02:33:00,80.0,75.0,30.00,SSE,148,0.0,0.0,85,0.00,,,0.41,,2013-06-13 06:33:00,
2013-06-13 02:44:00,80.0,75.0,30.00,SSE,153,0.0,0.0,85,0.00,,,0.41,,2013-06-13 06:44:00,
2013-06-13 02:52:00,80.0,75.0,29.99,SE,142,0.0,0.0,85,0.00,,,0.41,,2013-06-13 06:52:00,
2013-06-13 03:01:00,80.0,75.0,29.98,SSE,163,0.0,0.0,86,0.00,,,0.41,,2013-06-13 07:01:00,
2013-06-13 03:12:00,80.0,75.0,29.98,SSE,158,0.0,0.0,84,0.00,,,0.41,,2013-06-13 07:12:00,
2013-06-13 03:22:00,80.0,75.0,29.98,SSE,158,0.0,0.0,84,0.00,,,0.41,,2013-06-13 07:22:00,
2013-06-13 03:33:00,80.0,74.0,29.98,South,183,0.0,0.0,82,0.00,,,0.41,,2013-06-13 07:33:00,
2013-06-13 03:42:00,80.0,74.0,29.98,South,180,0.0,0.0,83,0.00,,,0.41,,2013-06-13 07:42:00,
2013-06-13 03:52:00,80.0,74.0,29.98,South,178,0.0,0.0,83,0.00,,,0.41,,2013-06-13 07:52:00,
2013-06-13 04:01:00,80.0,74.0,29.98,South,178,0.0,0.0,83,0.00,,,0.41,,2013-06-13 08:01:00,
2013-06-13 04:11:00,80.0,75.0,29.98,SSW,192,0.0,0.0,86,0.00,,,0.41,,2013-06-13 08:11:00,
2013-06-13 04:22:00,80.0,75.0,29.98,SSW,192,0.0,0.0,86,0.00,,,0.41,,2013-06-13 08:22:00,
2013-06-13 04:32:00,80.0,75.0,29.98,SSW,192,0.0,0.0,86,0.00,,,0.41,,2013-06-13 08:32:00,
2013-06-13 04:43:00,79.0,74.0,29.97,South,190,0.0,0.0,84,0.00,,,0.41,,2013-06-13 08:43:00,
2013-06-13 04:52:00,80.0,75.0,29.97,South,173,0.0,0.0,85,0.00,,,0.41,,2013-06-13 08:52:00,
2013-06-13 05:02:00,80.0,75.0,29.97,SSW,199,0.0,0.0,84,0.00,,,0.41,,2013-06-13 09:02:00,
2013-06-13 05:12:00,80.0,75.0,29.97,SSW,199,0.0,0.0,84,0.00,,,0.41,,2013-06-13 09:12:00,
2013-06-13 05:22:00,79.0,74.0,29.98,SSW,198,0.0,0.0,84,0.00,,,0.26,,2013-06-13 09:22:00,
2013-06-13 05:32:00,79.0,74.0,29.98,SSW,198,0.0,0.0,84,0.00,,,0.26,,2013-06-13 09:32:00,
2013-06-13 05:42:00,79.0,74.0,29.98,SSW,198,0.0,0.0,84,0.00,,,0.26,,2013-06-13 09:42:00,
2013-06-13 05:52:00,79.0,74.0,29.98,SSW,198,0.0,0.0,85,0.00,,,0.26,,2013-06-13 09:52:00,
2013-06-13 06:01:00,79.0,74.0,29.98,SSW,198,0.0,0.0,85,0.00,,,0.26,,2013-06-13 10:01:00,
2013-06-13 06:12:00,79.0,74.0,29.98,SSW,198,0.0,0.0,85,0.00,,,0.26,,2013-06-13 10:12:00,
2013-06-13 06:22:00,79.0,74.0,29.98,SSW,198,0.0,0.0,85,0.00,,,0.26,,2013-06-13 10:22:00,
2013-06-13 06:33:00,79.0,75.0,29.99,WSW,239,0.0,0.0,87,0.00,,,0.08,,2013-06-13 10:33:00,
2013-06-13 06:43:00,79.0,75.0,29.99,WSW,239,0.0,0.0,87,0.00,,,0.08,,2013-06-13 10:43:00,
2013-06-13 06:53:00,79.0,75.0,29.99,WSW,239,0.0,0.0,87,0.00,,,0.08,,2013-06-13 10:53:00,
2013-06-13 07:02:00,79.0,75.0,30.00,WSW,239,0.0,0.0,87,0.00,,,0.08,,2013-06-13 11:02:00,
2013-06-13 07:12:00,79.0,74.0,30.00,WSW,239,0.0,0.0,86,0.00,,,0.08,,2013-06-13 11:12:00,
2013-06-13 07:23:00,79.0,75.0,30.00,SSW,194,0.0,0.0,87,0.00,,,0.08,,2013-06-13 11:23:00,
2013-06-13 07:32:00,79.0,74.0,30.00,South,184,0.0,0.0,86,0.00,,,0.08,,2013-06-13 11:32:00,
2013-06-13 07:42:00,79.0,74.0,30.00,South,184,0.0,0.0,86,0.00,,,0.08,,2013-06-13 11:42:00,
2013-06-13 07:52:00,80.0,76.0,30.00,South,183,0.0,0.0,87,0.00,,,0.08,,2013-06-13 11:52:00,
2013-06-13 08:01:00,80.0,76.0,30.00,South,183,0.0,0.0,87,0.00,,,0.08,,2013-06-13 12:01:00,
2013-06-13 08:12:00,80.0,75.0,30.00,SSE,158,0.0,0.0,86,0.00,,,0.08,,2013-06-13 12:12:00,
2013-06-13 08:22:00,80.0,75.0,30.00,SSE,158,0.0,0.0,85,0.00,,,0.08,,2013-06-13 12:22:00,
2013-06-13 08:35:00,80.0,75.0,30.01,South,171,0.0,0.0,85,0.00,,,0.08,,2013-06-13 12:35:00,
2013-06-13 08:43:00,81.0,76.0,30.01,SSE,163,0.0,0.0,84,0.00,,,0.08,,2013-06-13 12:43:00,
2013-06-13 08:52:00,81.0,75.0,30.01,SSE,163,0.0,0.0,83,0.00,,,0.08,,2013-06-13 12:52:00,
2013-06-13 09:01:00,81.0,75.0,30.01,South,175,0.0,0.0,83,0.00,,,0.08,,2013-06-13 13:01:00,
2013-06-13 09:11:00,81.0,75.0,30.01,South,175,0.0,0.0,83,0.00,,,0.08,,2013-06-13 13:11:00,
2013-06-13 09:22:00,82.0,76.0,30.01,SSE,163,0.0,0.0,82,0.00,,,0.08,,2013-06-13 13:22:00,
2013-06-13 09:32:00,83.0,76.0,30.01,SSE,158,0.0,0.0,80,0.00,,,0.08,,2013-06-13 13:32:00,
2013-06-13 09:43:00,83.0,76.0,30.01,SSE,153,0.0,0.0,80,0.00,,,0.08,,2013-06-13 13:43:00,
2013-06-13 09:53:00,84.0,77.0,30.01,SSE,158,0.0,0.0,79,0.00,,,0.08,,2013-06-13 13:53:00,
2013-06-13 10:02:00,84.0,77.0,30.01,SSE,158,0.0,0.0,79,0.00,,,0.08,,2013-06-13 14:02:00,
2013-06-13 10:11:00,84.0,77.0,30.02,SE,141,0.0,0.0,79,0.00,,,0.08,,2013-06-13 14:11:00,
2013-06-13 10:22:00,85.0,77.0,30.02,South,173,0.0,0.0,78,0.00,,,0.08,,2013-06-13 14:22:00,
2013-06-13 10:33:00,85.0,77.0,30.03,SSE,153,0.0,0.0,77,0.00,,,0.08,,2013-06-13 14:33:00,
2013-06-13 10:43:00,85.0,77.0,30.03,SSE,153,0.0,0.0,77,0.00,,,0.08,,2013-06-13 14:43:00,
2013-06-13 10:53:00,85.0,76.0,30.03,SSE,153,0.0,0.0,75,0.00,,,0.08,,2013-06-13 14:53:00,
2013-06-13 11:02:00,86.0,78.0,30.03,SSE,153,0.0,0.0,76,0.00,,,0.08,,2013-06-13 15:02:00,
2013-06-13 11:12:00,86.0,77.0,30.03,SSE,153,0.0,0.0,75,0.00,,,0.08,,2013-06-13 15:12:00,
2013-06-13 11:22:00,86.0,78.0,30.03,SE,140,0.0,0.0,76,0.00,,,0.08,,2013-06-13 15:22:00,
2013-06-13 11:33:00,87.0,78.0,30.03,SE,142,0.0,0.0,75,0.00,,,0.08,,2013-06-13 15:33:00,
2013-06-13 11:43:00,87.0,78.0,30.03,SE,142,0.0,0.0,75,0.00,,,0.08,,2013-06-13 15:43:00,
2013-06-13 11:53:00,88.0,78.0,30.04,ESE,117,0.0,0.0,73,0.00,,,0.08,,2013-06-13 15:53:00,
2013-06-13 12:02:00,88.0,79.0,30.04,SSE,163,0.0,0.0,74,0.00,,,0.08,,2013-06-13 16:02:00,
2013-06-13 12:12:00,88.0,79.0,30.03,SE,132,0.0,0.0,74,0.00,,,0.08,,2013-06-13 16:12:00,
2013-06-13 12:22:00,88.0,79.0,30.03,ESE,119,0.0,0.0,76,0.00,,,0.08,,2013-06-13 16:22:00,
2013-06-13 12:33:00,87.0,78.0,30.03,ESE,106,0.0,0.0,74,0.00,,,0.08,,2013-06-13 16:33:00,
2013-06-13 12:43:00,86.0,78.0,30.03,SSE,148,0.0,0.0,76,0.00,,,0.08,,2013-06-13 16:43:00,
2013-06-13 12:53:00,86.0,78.0,30.03,SSE,148,0.0,0.0,76,0.00,,,0.08,,2013-06-13 16:53:00,
2013-06-13 13:02:00,87.0,78.0,30.03,SSE,153,0.0,0.0,76,0.00,,,0.08,,2013-06-13 17:02:00,
2013-06-13 13:12:00,88.0,79.0,30.03,SE,144,0.0,0.0,75,0.00,,,0.08,,2013-06-13 17:12:00,
2013-06-13 13:24:00,87.0,78.0,30.02,SE,140,0.0,0.0,75,0.00,,,0.06,,2013-06-13 17:24:00,
2013-06-13 13:33:00,88.0,79.0,30.02,South,173,0.0,0.0,74,0.00,,,0.06,,2013-06-13 17:33:00,
2013-06-13 13:43:00,88.0,79.0,30.02,South,173,0.0,0.0,74,0.00,,,0.06,,2013-06-13 17:43:00,
2013-06-13 13:53:00,88.0,79.0,30.01,SSE,158,0.0,0.0,75,0.00,,,0.06,,2013-06-13 17:53:00,
2013-06-13 14:02:00,88.0,78.0,30.01,SE,145,0.0,0.0,73,0.00,,,0.06,,2013-06-13 18:02:00,
2013-06-13 14:11:00,89.0,80.0,30.01,ESE,121,0.0,0.0,75,0.00,,,0.06,,2013-06-13 18:11:00,
2013-06-13 14:22:00,89.0,79.0,30.01,South,181,0.0,0.0,72,0.00,,,0.06,,2013-06-13 18:22:00,
2013-06-13 14:33:00,89.0,79.0,30.00,SSE,163,0.0,0.0,72,0.00,,,0.06,,2013-06-13 18:33:00,
2013-06-13 14:43:00,89.0,79.0,30.01,ESE,121,0.0,0.0,73,0.00,,,0.06,,2013-06-13 18:43:00,
2013-06-13 14:52:00,89.0,79.0,30.00,SSE,167,0.0,0.0,73,0.00,,,0.06,,2013-06-13 18:52:00,
2013-06-13 15:01:00,89.0,79.0,30.00,SSE,167,0.0,0.0,73,0.00,,,0.06,,2013-06-13 19:01:00,
2013-06-13 15:11:00,88.0,78.0,29.99,South,182,0.0,0.0,73,0.00,,,0.06,,2013-06-13 19:11:00,
2013-06-13 15:22:00,89.0,79.0,29.99,SE,136,0.0,0.0,72,0.00,,,0.06,,2013-06-13 19:22:00,
2013-06-13 15:33:00,89.0,78.0,29.98,SSE,148,0.0,0.0,71,0.00,,,0.06,,2013-06-13 19:33:00,
2013-06-13 15:43:00,89.0,78.0,29.98,South,183,0.0,0.0,71,0.00,,,0.06,,2013-06-13 19:43:00,
2013-06-13 15:53:00,87.0,76.0,29.98,SSW,192,0.0,0.0,71,0.00,,,0.06,,2013-06-13 19:53:00,
2013-06-13 16:02:00,86.0,76.0,29.98,SE,146,0.0,0.0,73,0.00,,,0.06,,2013-06-13 20:02:00,
2013-06-13 16:11:00,86.0,77.0,29.98,SE,146,0.0,0.0,74,0.00,,,0.06,,2013-06-13 20:11:00,
2013-06-13 16:22:00,86.0,77.0,29.98,SE,146,0.0,0.0,74,0.00,,,0.03,,2013-06-13 20:22:00,
2013-06-13 16:33:00,86.0,77.0,29.98,SE,146,0.0,0.0,74,0.00,,,0.03,,2013-06-13 20:33:00,
2013-06-13 16:44:00,85.0,77.0,29.96,South,170,0.0,0.0,76,0.00,,,0.03,,2013-06-13 20:44:00,
2013-06-13 16:53:00,85.0,76.0,29.96,South,182,0.0,0.0,75,0.00,,,0.03,,2013-06-13 20:53:00,
2013-06-13 17:02:00,86.0,78.0,29.96,South,177,0.0,0.0,76,0.00,,,0.03,,2013-06-13 21:02:00,
2013-06-13 17:11:00,86.0,77.0,29.96,South,177,0.0,0.0,74,0.00,,,0.03,,2013-06-13 21:11:00,
2013-06-13 17:22:00,86.0,76.0,29.95,South,177,0.0,0.0,73,0.00,,,0.00,,2013-06-13 21:22:00,
2013-06-13 17:34:00,85.0,76.0,29.95,South,177,0.0,0.0,74,0.00,,,0.00,,2013-06-13 21:34:00,
2013-06-13 17:43:00,85.0,76.0,29.95,SSE,167,0.0,0.0,75,0.01,,,0.01,,2013-06-13 21:43:00,
2013-06-13 17:52:00,85.0,77.0,29.95,SSE,167,0.0,0.0,76,0.01,,,0.01,,2013-06-13 21:52:00,
2013-06-13 18:02:00,84.0,76.0,29.95,SSE,167,0.0,0.0,76,0.01,,,0.01,,2013-06-13 22:02:00,
2013-06-13 18:11:00,84.0,76.0,29.95,SSE,167,0.0,0.0,77,0.01,,,0.01,,2013-06-13 22:11:00,
2013-06-13 18:22:00,84.0,76.0,29.95,SSE,167,0.0,0.0,76,0.01,,,0.01,,2013-06-13 22:22:00,
2013-06-13 18:33:00,84.0,76.0,29.95,SSW,209,0.0,0.0,77,0.01,,,0.01,,2013-06-13 22:33:00,
2013-06-13 18:43:00,84.0,76.0,29.95,SW,219,0.0,0.0,77,0.00,,,0.01,,2013-06-13 22:43:00,
2013-06-13 18:52:00,84.0,76.0,29.95,SSW,204,0.0,0.0,78,0.00,,,0.01,,2013-06-13 22:52:00,
2013-06-13 19:02:00,84.0,76.0,29.95,SSW,205,0.0,0.0,77,0.00,,,0.01,,2013-06-13 23:02:00,
2013-06-13 19:11:00,84.0,76.0,29.95,South,180,0.0,0.0,78,0.00,,,0.01,,2013-06-13 23:11:00,
2013-06-13 19:22:00,84.0,76.0,29.95,South,180,0.0,0.0,78,0.00,,,0.01,,2013-06-13 23:22:00,
2013-06-13 19:32:00,83.0,76.0,29.96,South,180,0.0,0.0,79,0.00,,,0.01,,2013-06-13 23:32:00,
2013-06-13 19:43:00,83.0,76.0,29.96,SSW,192,0.0,0.0,79,0.00,,,0.01,,2013-06-13 23:43:00,
2013-06-13 19:52:00,83.0,75.0,29.96,SSW,192,0.0,0.0,78,0.00,,,0.01,,2013-06-13 23:52:00,
2013-06-13 20:01:00,83.0,76.0,29.95,SSW,192,0.0,0.0,79,0.00,,,0.01,,2013-06-14 00:01:00,
2013-06-13 20:12:00,83.0,76.0,29.95,SSE,163,0.0,0.0,79,0.00,,,0.01,,2013-06-14 00:12:00,
2013-06-13 20:22:00,83.0,76.0,29.95,SSE,163,0.0,0.0,80,0.00,,,0.01,,2013-06-14 00:22:00,
2013-06-13 20:34:00,83.0,76.0,29.94,SSE,163,0.0,0.0,80,0.00,,,0.01,,2013-06-14 00:34:00,
2013-06-13 20:43:00,82.0,76.0,29.94,SSE,153,0.0,0.0,81,0.00,,,0.01,,2013-06-14 00:43:00,
2013-06-13 20:53:00,82.0,76.0,29.93,SSE,153,0.0,0.0,81,0.00,,,0.01,,2013-06-14 00:53:00,
2013-06-13 21:01:00,82.0,76.0,29.93,South,170,0.0,0.0,82,0.00,,,0.01,,2013-06-14 01:01:00,
2013-06-13 21:11:00,82.0,76.0,29.94,South,175,0.0,0.0,82,0.00,,,0.01,,2013-06-14 01:11:00,
2013-06-13 21:22:00,82.0,76.0,29.94,South,175,0.0,0.0,82,0.00,,,0.01,,2013-06-14 01:22:00,
2013-06-13 21:32:00,82.0,77.0,29.95,South,170,0.0,0.0,84,0.00,,,0.01,,2013-06-14 01:32:00,
2013-06-13 21:43:00,82.0,77.0,29.95,SSE,167,0.0,0.0,85,0.00,,,0.01,,2013-06-14 01:43:00,
2013-06-13 21:52:00,82.0,77.0,29.96,South,171,0.0,0.0,85,0.00,,,0.01,,2013-06-14 01:52:00,
2013-06-13 22:02:00,81.0,76.0,29.96,SSE,158,0.0,0.0,86,0.00,,,0.01,,2013-06-14 02:02:00,
2013-06-13 22:11:00,81.0,76.0,29.96,South,180,0.0,0.0,86,0.00,,,0.01,,2013-06-14 02:11:00,
2013-06-13 22:22:00,81.0,76.0,29.96,South,173,0.0,0.0,85,0.00,,,0.01,,2013-06-14 02:22:00,
2013-06-13 22:32:00,81.0,76.0,29.97,SSE,153,0.0,0.0,86,0.00,,,0.01,,2013-06-14 02:32:00,
2013-06-13 22:43:00,81.0,76.0,29.97,South,177,0.0,0.0,85,0.00,,,0.01,,2013-06-14 02:43:00,
2013-06-13 22:52:00,81.0,76.0,29.97,SSE,153,0.0,0.0,85,0.00,,,0.01,,2013-06-14 02:52:00,
2013-06-13 23:02:00,81.0,76.0,29.97,South,176,0.0,0.0,85,0.00,,,0.01,,2013-06-14 03:02:00,
2013-06-13 23:12:00,81.0,76.0,29.97,SSW,193,0.0,0.0,85,0.00,,,0.01,,2013-06-14 03:12:00,
2013-06-13 23:22:00,81.0,76.0,29.98,SSE,163,0.0,0.0,85,0.00,,,0.01,,2013-06-14 03:22:00,
2013-06-13 23:34:00,81.0,76.0,29.98,SE,143,0.0,0.0,85,0.00,,,0.01,,2013-06-14 03:34:00,
2013-06-13 23:43:00,81.0,76.0,29.98,SSE,167,0.0,0.0,85,0.00,,,0.01,,2013-06-14 03:43:00,
2013-06-13 23:53:00,81.0,76.0,29.97,South,175,0.0,0.0,85,0.00,,,0.01,,2013-06-14 03:53:00,